User: anonymous   Login
Location: Unspecified
(0.0000°N, 0.0000°E)
Time: 07:23:38
(UTC+00:00)
Language:

Cosmos 1703 - Orbit

View from above orbital plane
View from above orbital plane
View from above satellite
View from above satellite

Ground track
Ground track

The orbit data is extracted from the following two-line orbital elements,

1 16262U 85108A   18023.68560700  .00000564  00000-0  32261-4 0  9998
2 16262  82.4802  33.3526 0010831 232.7888 127.2354 15.10647118752187
Epoch (UTC): 23 January 2018 16:27:16
Eccentricity: 0.0010831
inclination: 82.4802°
perigee height: 527 km
apogee height: 542 km
right ascension of ascending node: 33.3526°
argument of perigee: 232.7888°
revolutions per day: 15.10647118
mean anomaly at epoch: 127.2354°
orbit number at epoch: 75218

The dashed part of the orbit path shows where the satellite is in the earth's shadow,  

DLR